Location: Marsån
(66.4167°N, 22.2833°E)
Time: 09:59:34
(UTC+00:00)

Okean 1 - Pass Details

Date: 24 February 2024
Orbit: 508 x 534 km, 82.5° (Epoch: 15 April)

Event Time Altitude Azimuth Distance (km) Brightness Sun altitude
Rises 18:05:20 0° 341° (NNW) 2,719 7.4 -16.7°
Reaches altitude 10° 18:07:31 10° 342° (NNW) 1,821 6.4 -16.9°
Maximum altitude 18:11:32 83° 72° (ENE) 553 3.2 -17.3°
Enters shadow 18:13:43 26° 158° (SSE) 1,095 4.5 -17.5°
